Location: Newark
(48.6461°N, 4.3644°W)
Time: 17:51:55
(UTC+00:00)

STARLINK 1054 - Pass Details

Date: 12 December 2019
Orbit: 549 x 551 km, 53.0° (Epoch: 19 January)

Event Time Altitude Azimuth Distance (km) Brightness Sun altitude
Exits shadow 04:13:14 11° 113° (ESE) 1,796 6.8 -36.3°
Drops below altitude 10° 04:13:23 10° 113° (ESE) 1,859 6.9 -36.3°
Enters shadow 05:14:40 -60° 309° (NW) 11,702 10.3 -26.2°
